Location: Limerick
(52.6800°N, 8.6400°W)
Time: 09:02:27
(UTC+01:00)

Amateur Radio Satellites - All Passes

Search period start: 25 August 2016 08:32
Search period end: 26 August 2016 08:32
Location: Limerick, 52.6800°N, 8.6400°W

Satellite Date Start Highest point End Downlink Frequencies (MHz)
Time Altitude Azimuth
HORYU 2 25 Aug 08:34:45 08:37:39 17° 305° (NW) 08:40:32 437.375
RS-15 25 Aug 08:38:23 08:50:13 51° 15° (NNE) 09:02:12 29.354- 29.394
HO-68 25 Aug 08:43:59 08:50:11 30° 92° (E) 08:56:19 435.675
SEEDS 25 Aug 08:44:37 08:47:14 16° 88° (E) 08:49:51 437.485
TIGRISAT 25 Aug 08:53:37 08:54:11 10° 49° (NE) 08:54:45 435.000
CINEMA 3 25 Aug 08:56:46 09:01:06 36° 95° (E) 09:05:13 145.822/145.860
SO-50 25 Aug 08:57:39 09:02:20 68° 42° (NE) 09:06:53 436.795
CANX-2 25 Aug 08:58:49 09:02:39 32° 95° (E) 09:06:26 2200.000
LilacSat-2 25 Aug 08:58:59 09:02:18 29° 294° (WNW) 09:05:34 437.200
AO-7 25 Aug 09:01:37 09:06:53 19° 330° (NNW) 09:12:08 29.400- 29.500
CUTE 1.7 + AOD 2 25 Aug 09:05:34 09:09:23 32° 95° (E) 09:13:13 437.475
GOMX 1 25 Aug 09:07:36 09:12:43 40° 296° (WNW) 09:17:41 467.674
BRITE-PL 25 Aug 09:15:52 09:20:10 23° 304° (NW) 09:24:30 437.365/2234.400
UNISAT 6 25 Aug 09:18:29 09:21:23 17° 56° (NE) 09:24:16 437.425
YUBILEINY 25 Aug 09:19:42 09:28:00 43° 295° (WNW) 09:36:22 435.215
AAUSAT CUBESAT 2 25 Aug 09:24:26 09:27:42 22° 92° (E) 09:30:58 437.432
PRISM 25 Aug 09:24:32 09:28:38 78° 256° (WSW) 09:32:47 437.425
Cubesat XI-IV 25 Aug 09:26:43 09:31:26 33° 300° (WNW) 09:36:07 437.490
COMPASS 1 25 Aug 09:29:04 09:32:44 29° 94° (E) 09:36:25 437.405
AIST 1 25 Aug 09:29:15 09:31:47 15° 82° (E) 09:34:21
DOVE 4 25 Aug 09:30:12 09:35:12 45° 294° (WNW) 09:39:57 437.250
AO-85 25 Aug 09:30:56 09:35:37 35° 329° (NNW) 09:40:00 145.980
Cosmos 2504 25 Aug 09:34:58 09:43:23 70° 284° (WNW) 09:51:13 435.465 / 435.565
CUBEBUG 2 25 Aug 09:36:04 09:39:45 26° 93° (E) 09:43:20 437.445
CUSAT 1 25 Aug 09:38:37 09:42:34 19° 59° (ENE) 09:47:08 437.405
CUTE-I 25 Aug 09:39:48 09:44:13 27° 302° (WNW) 09:48:37 437.470
Oscar 11 25 Aug 09:39:56 09:42:22 15° 87° (E) 09:44:48 145.826/435.025
UWE-3 25 Aug 09:40:36 09:43:50 21° 90° (E) 09:47:01 435.000/436.395/437.385
FUNcube-1 25 Aug 09:43:15 09:45:30 14° 87° (E) 09:47:43 145.935
NOAA 15 25 Aug 09:51:48 09:55:32 20° 307° (NW) 09:59:16 137.62
NOAA 18 25 Aug 09:53:28 09:57:57 26° 305° (NW) 10:02:26 137.9125
ANTELSAT 25 Aug 09:54:11 09:58:12 30° 63° (ENE) 10:02:09 437.575/2403.000
ZACube-1 25 Aug 10:02:12 10:05:31 22° 92° (E) 10:08:47 437.345
DANDE 25 Aug 10:08:26 10:08:57 10° 57° (ENE) 10:09:30 436.750
SEEDS 25 Aug 10:19:13 10:23:25 69° 287° (WNW) 10:27:35 437.485
TIGRISAT 25 Aug 10:25:28 10:29:57 52° 69° (ENE) 10:34:21 435.000
JAS-2 25 Aug 10:28:47 10:30:52 12° 42° (NE) 10:33:00 435.910
QB50P1 25 Aug 10:30:30 10:32:45 14° 54° (NE) 10:35:00 145.935-145.965
HO-68 25 Aug 10:31:22 10:38:32 72° 293° (WNW) 10:45:38 435.675
CINEMA 3 25 Aug 10:33:58 10:38:14 35° 296° (WNW) 10:42:19 145.822/145.860
CANX-2 25 Aug 10:34:41 10:38:31 34° 294° (WNW) 10:42:21 2200.000
SO-50 25 Aug 10:38:42 10:42:27 25° 243° (WSW) 10:46:06 436.795
POPSAT HIP 1 25 Aug 10:39:40 10:42:21 16° 56° (ENE) 10:45:03 437.405
CUTE 1.7 + AOD 2 25 Aug 10:41:26 10:45:15 33° 295° (WNW) 10:49:03 437.475
GOMX 1 25 Aug 10:49:13 10:49:24 10° 317° (NW) 10:49:35 467.674
RS-15 25 Aug 10:52:02 11:04:28 85° 45° (NE) 11:16:49 29.354- 29.394
UNISAT 6 25 Aug 10:52:55 10:57:33 87° 259° (W) 11:02:07 437.425
AO-7 25 Aug 10:54:13 10:56:29 11° 357° (N) 10:58:44 29.400- 29.500
AAUSAT CUBESAT 2 25 Aug 10:59:25 11:03:27 48° 290° (WNW) 11:07:27 437.432
PRISM 25 Aug 11:04:18 11:04:42 10° 275° (W) 11:05:05 437.425
AIST 1 25 Aug 11:04:29 11:08:49 73° 283° (WNW) 11:13:13
COMPASS 1 25 Aug 11:04:32 11:08:22 36° 293° (WNW) 11:12:12 437.405
QB50P2 25 Aug 11:08:01 11:11:43 29° 63° (ENE) 11:15:24 145.880/145.840
DUCHIFAT 1 25 Aug 11:10:00 11:13:32 26° 62° (ENE) 11:17:03 145.980
DOVE 4 25 Aug 11:10:29 11:11:38 11° 315° (NW) 11:12:46 437.250
POLYITAN 1 25 Aug 11:10:32 11:14:14 29° 63° (ENE) 11:17:57 437.675
CUBEBUG 2 25 Aug 11:12:28 11:16:34 41° 293° (WNW) 11:20:31 437.445
AO-85 25 Aug 11:13:48 11:17:19 19° 352° (N) 11:20:40 145.980
Oscar 11 25 Aug 11:14:45 11:19:04 79° 288° (WNW) 11:23:23 145.826/435.025
HUMSAT D 25 Aug 11:15:11 11:18:42 27° 94° (E) 11:22:11 437.325/437.525
UWE-3 25 Aug 11:16:29 11:20:39 52° 291° (WNW) 11:24:41 435.000/436.395/437.385
FUNcube-1 25 Aug 11:18:07 11:22:19 77° 288° (WNW) 11:26:28 145.935
CUSAT 1 25 Aug 11:19:34 11:25:11 79° 76° (ENE) 11:32:21 437.405
NANOSAT C BR1 25 Aug 11:21:52 11:25:44 34° 65° (ENE) 11:29:35 145.865
YUBILEINY 25 Aug 11:23:36 11:27:55 14° 324° (NW) 11:32:14 435.215
BEESAT 2 25 Aug 11:24:07 11:26:43 17° 115° (ESE) 11:29:20 435.950
ISS 25 Aug 11:28:28 11:31:09 23° 149° (SSE) 11:33:51 145.825
DELFI C3 25 Aug 11:28:49 11:32:48 70° 103° (ESE) 11:36:48 145.870
ANTELSAT 25 Aug 11:30:26 11:34:48 42° 262° (W) 11:39:08 437.575/2403.000
Cosmos 2504 25 Aug 11:32:28 11:38:18 21° 308° (NW) 11:43:55 435.465 / 435.565
ZACube-1 25 Aug 11:38:01 11:42:05 47° 291° (WNW) 11:46:04 437.345
GONETS M04 25 Aug 11:39:49 11:46:07 23° 74° (ENE) 11:52:28
BEESAT 3 25 Aug 11:46:59 11:50:44 44° 125° (SE) 11:54:30 437.485
DANDE 25 Aug 11:47:54 11:52:21 56° 74° (ENE) 11:58:19 436.750
AUBIESAT-1 25 Aug 11:53:22 11:55:38 14° 92° (E) 11:57:50 437.475
M-CUBED/EXP-1 PRIME 25 Aug 11:55:51 11:58:52 18° 94° (E) 12:01:44 437.505
SEEDS 25 Aug 11:56:54 11:58:22 12° 307° (NW) 11:59:50 437.485
TIGRISAT 25 Aug 12:03:11 12:06:54 24° 268° (W) 12:10:36 435.000
QB50P1 25 Aug 12:03:35 12:07:53 84° 74° (ENE) 12:12:12 145.935-145.965
JAS-2 25 Aug 12:09:36 12:14:38 51° 65° (ENE) 12:20:04 435.910
POPSAT HIP 1 25 Aug 12:13:19 12:17:37 81° 256° (WSW) 12:21:56 437.405
VELOX 1 25 Aug 12:16:12 12:18:31 14° 87° (E) 12:20:49 145.980
BUGSAT 1 25 Aug 12:16:58 12:21:05 50° 69° (ENE) 12:25:13 437.445
HO-68 25 Aug 12:19:57 12:25:11 22° 316° (NW) 12:30:24 435.675
CUBEBUG 1 25 Aug 12:25:28 12:28:45 20° 90° (E) 12:32:01 437.445
UNISAT 6 25 Aug 12:32:42 12:34:56 13° 274° (W) 12:37:10 437.425
AO-7 25 Aug 12:41:22 12:45:55 16° 25° (NNE) 12:50:28 29.400- 29.500
Oscar 19 25 Aug 12:41:29 12:45:44 26° 58° (ENE) 12:50:01 437.125/150
ESTCUBE 1 25 Aug 12:42:52 12:47:09 39° 97° (E) 12:51:25 437.505/2401.250
DX 1 25 Aug 12:43:15 12:46:09 17° 89° (E) 12:49:02 434.975-435.025
QB50P2 25 Aug 12:43:21 12:47:24 40° 262° (W) 12:51:28 145.880/145.840
DUCHIFAT 1 25 Aug 12:44:56 12:49:02 45° 261° (W) 12:53:09 145.980
AIST 1 25 Aug 12:45:42 12:47:19 12° 304° (NW) 12:48:56
POLYITAN 1 25 Aug 12:45:53 12:49:57 40° 262° (W) 12:54:00 437.675
Cosmos 2499 25 Aug 12:49:18 12:56:39 40° 87° (E) 13:03:33 435.465 / 435.565
HUMSAT D 25 Aug 12:50:39 12:54:26 37° 293° (WNW) 12:58:12 437.325/437.525
Oscar 11 25 Aug 12:52:27 12:54:32 13° 306° (NW) 12:56:37 145.826/435.025
PCSat 25 Aug 12:54:55 12:59:13 25° 110° (ESE) 13:03:32 145.827
AO-85 25 Aug 12:55:36 12:59:18 22° 17° (NNE) 13:02:45 145.980
FUNcube-1 25 Aug 12:56:05 12:57:52 13° 307° (NW) 12:59:38 145.935
SPROUT 25 Aug 12:57:12 13:00:10 18° 89° (E) 13:03:07 437.525
NANOSAT C BR1 25 Aug 12:57:36 13:01:28 33° 264° (W) 13:05:21 145.865
BEESAT 2 25 Aug 13:00:05 13:04:04 78° 316° (NW) 13:08:05 435.950
CUSAT 1 25 Aug 13:02:21 13:06:55 24° 271° (W) 13:12:15 437.405
AISAT 25 Aug 13:03:35 13:07:46 37° 97° (E) 13:11:54 437.250
ISS 25 Aug 13:04:00 13:07:16 63° 168° (SSE) 13:10:32 145.825
DELFI C3 25 Aug 13:04:40 13:07:13 16° 302° (WNW) 13:09:45 145.870
RS-15 25 Aug 13:05:03 13:15:58 40° 252° (WSW) 13:26:47 29.354- 29.394
50 SAT 25 Aug 13:09:15 13:12:41 37° 98° (E) 13:16:05 437.505
AIST 2 25 Aug 13:12:02 13:13:15 11° 110° (ESE) 13:14:29 435.215
BEESAT 3 25 Aug 13:24:52 13:28:31 35° 326° (NW) 13:32:11 437.485
AUBIESAT-1 25 Aug 13:26:25 13:30:45 80° 291° (WNW) 13:34:44 437.475
Gurwin Techsat 1B 25 Aug 13:27:55 13:32:33 32° 60° (ENE) 13:37:12 435.225
UKube-1 25 Aug 13:28:42 13:32:41 34° 97° (E) 13:36:38 .
M-CUBED/EXP-1 PRIME 25 Aug 13:29:31 13:33:53 64° 295° (WNW) 13:37:54 437.505
DANDE 25 Aug 13:31:07 13:35:02 26° 267° (W) 13:39:52 436.750
GONETS M04 25 Aug 13:32:52 13:41:37 82° 98° (E) 13:50:30
QB50P1 25 Aug 13:42:03 13:44:16 14° 273° (W) 13:46:28 145.935-145.965
ITAMSAT 1 25 Aug 13:50:05 13:53:41 19° 53° (NE) 13:57:18 435.822/435.867
VELOX 1 25 Aug 13:51:08 13:55:39 88° 286° (WNW) 14:00:07 145.980
POPSAT HIP 1 25 Aug 13:52:45 13:54:07 11° 275° (W) 13:55:30 437.405
BUGSAT 1 25 Aug 13:53:22 13:56:44 22° 268° (W) 14:00:07 437.445
JAS-2 25 Aug 13:55:37 14:00:08 29° 268° (W) 14:04:55 435.910
CUBEBUG 1 25 Aug 14:01:02 14:05:26 60° 290° (WNW) 14:09:48 437.445
DX 1 25 Aug 14:18:26 14:22:50 70° 289° (WNW) 14:27:12 434.975-435.025
Oscar 19 25 Aug 14:19:36 14:24:43 62° 258° (WSW) 14:29:54 437.125/150
ESTCUBE 1 25 Aug 14:19:52 14:23:54 32° 297° (WNW) 14:27:53 437.505/2401.250
AO-7 25 Aug 14:29:01 14:36:30 39° 50° (NE) 14:43:59 29.400- 29.500
SPROUT 25 Aug 14:32:16 14:36:32 63° 289° (WNW) 14:40:46 437.525
AO-85 25 Aug 14:36:09 14:40:39 60° 41° (NE) 14:44:45 145.980
PCSat 25 Aug 14:36:42 14:42:08 75° 311° (NW) 14:47:36 145.827
BEESAT 2 25 Aug 14:39:19 14:42:30 22° 336° (NNW) 14:45:41 435.950
AISAT 25 Aug 14:40:10 14:44:12 33° 296° (WNW) 14:48:13 437.250
ISS 25 Aug 14:40:23 14:43:39 70° 189° (S) 14:46:56 145.825
Cosmos 2499 25 Aug 14:41:42 14:49:37 55° 288° (WNW) 14:57:00 435.465 / 435.565
50 SAT 25 Aug 14:43:12 14:46:07 23° 297° (WNW) 14:49:01 437.505
AIST 2 25 Aug 14:46:52 14:50:58 69° 129° (SE) 14:55:07 435.215
SWISSCUBE 25 Aug 14:48:34 14:51:18 15° 87° (E) 14:54:02 437.505
O/OREOS (USA 219) 25 Aug 14:49:54 14:53:21 22° 103° (ESE) 14:56:48 437.305
TISAT 1 25 Aug 15:01:45 15:05:59 67° 103° (ESE) 15:10:10 437.305
AUBIESAT-1 25 Aug 15:02:00 15:04:30 15° 314° (NW) 15:06:53 437.475
BEESAT 3 25 Aug 15:04:45 15:07:14 16° 349° (NNW) 15:09:44 437.485
UKube-1 25 Aug 15:04:48 15:08:44 34° 296° (WNW) 15:12:39 .
M-CUBED/EXP-1 PRIME 25 Aug 15:05:25 15:07:33 13° 316° (NW) 15:09:36 437.505
BEESAT 25 Aug 15:05:34 15:08:59 19° 90° (E) 15:12:22 436.000
Gurwin Techsat 1B 25 Aug 15:07:08 15:12:19 52° 260° (W) 15:17:32 435.225
ITAMSAT 1 25 Aug 15:27:20 15:32:32 90° 101° (ESE) 15:37:46 435.822/435.867
VELOX 1 25 Aug 15:28:49 15:31:30 16° 306° (NW) 15:34:09 145.980
YUBILEINY 25 Aug 15:28:57 15:33:02 14° 35° (NE) 15:37:06 435.215
GONETS M04 25 Aug 15:31:59 15:39:34 31° 303° (WNW) 15:47:13
CUBEBUG 1 25 Aug 15:39:26 15:40:51 11° 310° (NW) 15:42:16 437.445
ITUPSAT 1 25 Aug 15:50:24 15:54:58 43° 99° (E) 15:59:30 437.325
DX 1 25 Aug 15:56:18 15:58:16 13° 308° (NW) 16:00:14 434.975-435.025
Oscar 19 25 Aug 16:04:04 16:05:08 11° 278° (W) 16:06:12 437.125/150
SPROUT 25 Aug 16:10:21 16:11:39 11° 309° (NW) 16:12:58 437.525
ISS 25 Aug 16:16:56 16:19:52 30° 207° (SSW) 16:22:47 145.825
AO-85 25 Aug 16:17:11 16:20:43 24° 244° (WSW) 16:24:03 145.980
BEESAT 2 25 Aug 16:19:23 16:21:40 15° 0° (N) 16:23:57 435.950
AO-7 25 Aug 16:20:27 16:28:49 73° 253° (WSW) 16:37:13 29.400- 29.500
PCSat 25 Aug 16:21:52 16:26:24 26° 334° (NNW) 16:30:56 145.827
NOAA 15 25 Aug 16:22:35 16:24:14 11° 44° (NE) 16:25:55 137.62
SWISSCUBE 25 Aug 16:24:59 16:29:47 88° 290° (WNW) 16:34:34 437.505
HORYU 2 25 Aug 16:25:19 16:28:55 24° 60° (ENE) 16:32:32 437.375
AIST 2 25 Aug 16:26:11 16:29:48 28° 331° (NNW) 16:33:29 435.215
O/OREOS (USA 219) 25 Aug 16:27:55 16:32:22 59° 303° (WNW) 16:36:54 437.305
NOAA 18 25 Aug 16:28:48 16:30:23 11° 41° (NE) 16:31:58 137.9125
TISAT 1 25 Aug 16:38:16 16:41:13 19° 302° (WNW) 16:44:09 437.305
Cosmos 2499 25 Aug 16:40:14 16:44:39 16° 313° (NW) 16:48:58 435.465 / 435.565
BEESAT 25 Aug 16:42:30 16:47:16 70° 289° (WNW) 16:52:00 436.000
BEESAT 3 25 Aug 16:43:49 16:46:21 16° 12° (NNE) 16:48:54 437.485
STARS 25 Aug 16:43:54 16:45:16 11° 85° (E) 16:46:38 437.465
GOMX 1 25 Aug 17:07:25 17:10:41 17° 51° (NE) 17:14:01 467.674
ITAMSAT 1 25 Aug 17:09:32 17:12:45 16° 273° (W) 17:15:59 435.822/435.867
BRITE-PL 25 Aug 17:15:42 17:20:00 31° 60° (ENE) 17:24:37 437.365/2234.400
Cosmos 2491 25 Aug 17:17:59 17:21:58 14° 66° (ENE) 17:25:58 435.465 / 435.565
MOZHAYETS 4 25 Aug 17:20:17 17:24:48 55° 100° (E) 17:29:17
YUBILEINY 25 Aug 17:24:45 17:33:01 42° 64° (ENE) 17:41:10 435.215
Cosmos 2504 25 Aug 17:28:01 17:32:42 17° 48° (NE) 17:37:16 435.465 / 435.565
ITUPSAT 1 25 Aug 17:28:30 17:32:42 32° 298° (WNW) 17:36:54 437.325
DOVE 4 25 Aug 17:28:51 17:31:25 14° 49° (NE) 17:34:01 437.250
KKS-1 25 Aug 17:34:32 17:38:59 58° 102° (ESE) 17:43:23 437.445
Cubesat XI-IV 25 Aug 17:35:34 17:40:02 28° 58° (ENE) 17:44:32 437.490
HO-68 25 Aug 17:35:45 17:39:23 15° 34° (NE) 17:43:00 435.675
GONETS M04 25 Aug 17:38:39 17:40:19 11° 334° (NNW) 17:41:59
CUTE-I 25 Aug 17:47:58 17:52:43 34° 61° (ENE) 17:57:28 437.470
BEESAT 2 25 Aug 17:57:39 18:00:50 22° 24° (NNE) 18:04:01 435.950
NOAA 15 25 Aug 17:57:50 18:02:51 47° 65° (ENE) 18:07:55 137.62
HORYU 2 25 Aug 18:00:50 18:05:13 53° 259° (W) 18:09:37 437.375
SWISSCUBE 25 Aug 18:03:55 18:06:58 17° 306° (NW) 18:09:59 437.505
NOAA 18 25 Aug 18:04:33 18:09:45 43° 63° (ENE) 18:14:58 137.9125
AIST 2 25 Aug 18:06:56 18:09:32 16° 354° (N) 18:12:09 435.215
PCSat 25 Aug 18:07:59 18:11:38 18° 0° (N) 18:15:18 145.827
O/OREOS (USA 219) 25 Aug 18:10:08 18:12:47 15° 326° (NNW) 18:15:26 437.305
LilacSat-2 25 Aug 18:12:00 18:15:33 37° 68° (ENE) 18:19:07 437.200
AO-7 25 Aug 18:17:30 18:23:07 19° 275° (W) 18:28:46 29.400- 29.500
STARS 25 Aug 18:17:58 18:22:24 78° 103° (ESE) 18:26:49 437.465
BEESAT 3 25 Aug 18:21:19 18:25:03 37° 35° (NE) 18:28:45 437.485
BEESAT 25 Aug 18:21:49 18:24:15 14° 309° (NW) 18:26:41 436.000
CINEMA 3 25 Aug 18:29:21 18:31:51 14° 52° (NE) 18:34:21 145.822/145.860
CUBESAT XI-V 25 Aug 18:32:53 18:37:24 44° 98° (E) 18:41:53 437.345
GOMX 1 25 Aug 18:42:45 18:47:52 74° 72° (ENE) 18:53:17 467.674
BRITE-PL 25 Aug 18:53:31 18:58:15 50° 263° (W) 19:03:25 437.365/2234.400
MOZHAYETS 4 25 Aug 18:58:01 19:01:41 24° 300° (WNW) 19:05:21
DOVE 4 25 Aug 19:02:59 19:08:04 59° 70° (ENE) 19:13:20 437.250
Cosmos 2491 25 Aug 19:08:20 19:16:45 56° 90° (E) 19:25:15 435.465 / 435.565
KKS-1 25 Aug 19:11:43 19:15:14 23° 301° (WNW) 19:18:44 437.445
Cubesat XI-IV 25 Aug 19:14:31 19:19:49 61° 258° (WSW) 19:25:08 437.490
HO-68 25 Aug 19:18:42 19:25:23 43° 58° (ENE) 19:32:05 435.675
Cosmos 2504 25 Aug 19:20:32 19:27:54 64° 74° (ENE) 19:35:00 435.465 / 435.565
YUBILEINY 25 Aug 19:21:41 19:30:17 61° 268° (W) 19:38:48 435.215
CUTE-I 25 Aug 19:27:29 19:32:38 48° 261° (W) 19:37:49 437.470
BEESAT 2 25 Aug 19:35:14 19:39:16 77° 47° (NE) 19:43:17 435.950
NOAA 15 25 Aug 19:38:07 19:42:49 33° 265° (W) 19:47:34 137.62
SEEDS 25 Aug 19:41:45 19:45:06 24° 62° (ENE) 19:48:28 437.485
NOAA 18 25 Aug 19:45:19 19:50:29 39° 263° (W) 19:55:40 137.9125
AIST 2 25 Aug 19:46:21 19:49:28 20° 18° (NNE) 19:52:35 435.215
LilacSat-2 25 Aug 19:46:45 19:49:58 25° 266° (W) 19:53:11 437.200
PCSat 25 Aug 19:52:19 19:56:53 26° 26° (NNE) 20:01:25 145.827
STARS 25 Aug 19:55:18 19:58:16 18° 304° (NW) 20:01:12 437.465
CANX-2 25 Aug 19:57:01 20:01:03 47° 69° (ENE) 20:05:07 2200.000
BEESAT 3 25 Aug 19:59:01 20:02:47 41° 236° (SW) 20:06:31 437.485
CINEMA 3 25 Aug 20:03:10 20:08:08 65° 71° (ENE) 20:13:05 145.822/145.860
CUTE 1.7 + AOD 2 25 Aug 20:03:39 20:07:42 48° 69° (ENE) 20:11:46 437.475
CUBESAT XI-V 25 Aug 20:10:33 20:14:39 30° 297° (WNW) 20:18:44 437.345
AAUSAT CUBESAT 2 25 Aug 20:20:07 20:23:45 31° 65° (ENE) 20:27:25 437.432
GOMX 1 25 Aug 20:22:43 20:26:33 21° 273° (W) 20:30:33 467.674
COMPASS 1 25 Aug 20:25:14 20:29:08 42° 68° (ENE) 20:33:03 437.405
STRAND 1 25 Aug 20:26:44 20:31:26 36° 96° (E) 20:36:07 437.568
CUBEBUG 2 25 Aug 20:39:08 20:43:37 47° 69° (ENE) 20:48:01 437.445
Oscar 11 25 Aug 20:39:57 20:43:26 24° 61° (ENE) 20:46:56 145.826/435.025
DOVE 4 25 Aug 20:41:47 20:46:08 26° 270° (W) 20:50:35 437.250
UWE-3 25 Aug 20:42:37 20:46:48 37° 66° (ENE) 20:50:54 435.000/436.395/437.385
FUNcube-1 25 Aug 20:43:43 20:47:20 25° 62° (ENE) 20:50:54 145.935
DELFI C3 25 Aug 20:47:49 20:49:43 13° 56° (NE) 20:51:39 145.870
Cubesat XI-IV 25 Aug 20:59:54 21:01:01 11° 278° (W) 21:02:10 437.490
ZACube-1 25 Aug 21:03:07 21:07:14 38° 67° (ENE) 21:11:17 437.345
AIST 1 25 Aug 21:05:13 21:09:34 53° 75° (ENE) 21:13:53
Cosmos 2491 25 Aug 21:05:40 21:13:55 45° 295° (WNW) 21:22:16 435.465 / 435.565
HO-68 25 Aug 21:06:00 21:13:01 54° 259° (W) 21:20:05 435.675
AUBIESAT-1 25 Aug 21:12:04 21:13:44 12° 42° (NE) 21:15:24 437.475
BEESAT 2 25 Aug 21:13:56 21:16:38 18° 245° (WSW) 21:19:19 435.950
M-CUBED/EXP-1 PRIME 25 Aug 21:14:31 21:17:00 14° 45° (NE) 21:19:28 437.505
Cosmos 2504 25 Aug 21:14:32 21:20:47 31° 278° (W) 21:26:52 435.465 / 435.565
SEEDS 25 Aug 21:16:35 21:20:36 46° 261° (W) 21:24:38 437.485
YUBILEINY 25 Aug 21:20:35 21:25:10 16° 292° (WNW) 21:29:43 435.215
AIST 2 25 Aug 21:24:39 21:28:47 55° 41° (NE) 21:32:54 435.215
CANX-2 25 Aug 21:33:50 21:37:10 23° 268° (W) 21:40:32 2200.000
PCSat 25 Aug 21:35:40 21:41:08 76° 49° (NE) 21:46:34 145.827
GONETS M04 25 Aug 21:39:25 21:45:17 19° 44° (NE) 21:51:08
CUTE 1.7 + AOD 2 25 Aug 21:40:30 21:43:48 22° 268° (W) 21:47:08 437.475
CINEMA 3 25 Aug 21:41:47 21:45:41 22° 270° (W) 21:49:34 145.822/145.860
AAUSAT CUBESAT 2 25 Aug 21:55:29 21:59:13 33° 264° (W) 22:02:59 437.432
COMPASS 1 25 Aug 22:01:27 22:04:51 25° 267° (W) 22:08:18 437.405
STRAND 1 25 Aug 22:05:56 22:10:43 41° 296° (WNW) 22:15:28 437.568
HUMSAT D 25 Aug 22:11:46 22:15:41 41° 68° (ENE) 22:19:34 437.325/437.525
ESTCUBE 1 25 Aug 22:14:08 22:16:17 13° 52° (NE) 22:18:26 437.505/2401.250
Oscar 11 25 Aug 22:15:09 22:19:20 49° 261° (W) 22:23:33 145.826/435.025
CUBEBUG 2 25 Aug 22:16:28 22:20:26 27° 267° (W) 22:24:21 437.445
FUNcube-1 25 Aug 22:19:04 22:23:22 49° 261° (W) 22:27:38 145.935
UWE-3 25 Aug 22:19:09 22:23:18 33° 264° (W) 22:27:23 435.000/436.395/437.385
DELFI C3 25 Aug 22:20:03 22:23:59 90° 256° (WSW) 22:27:58 145.870
Cosmos 2499 25 Aug 22:32:49 22:38:00 21° 53° (NE) 22:43:06 435.465 / 435.565
AISAT 25 Aug 22:33:07 22:35:02 13° 51° (NE) 22:36:58 437.250
PRISM 25 Aug 22:35:14 22:39:26 74° 104° (ESE) 22:43:37 437.425
ZACube-1 25 Aug 22:39:38 22:43:36 31° 265° (W) 22:47:31 437.345
UNISAT 6 25 Aug 22:40:23 22:42:21 13° 86° (E) 22:44:17 437.425
AUBIESAT-1 25 Aug 22:42:46 22:47:15 49° 62° (ENE) 22:51:43 437.475
AIST 1 25 Aug 22:43:32 22:46:49 21° 274° (W) 22:50:05
M-CUBED/EXP-1 PRIME 25 Aug 22:46:03 22:50:41 61° 64° (ENE) 22:55:20 437.505
UKube-1 25 Aug 22:56:16 22:57:36 11° 50° (NE) 22:58:57 .
HO-68 25 Aug 23:00:03 23:02:29 12° 281° (W) 23:04:54 435.675
AIST 2 25 Aug 23:03:30 23:07:03 27° 241° (WSW) 23:10:35 435.215
Cosmos 2491 25 Aug 23:09:20 23:13:46 14° 323° (NW) 23:18:13 435.465 / 435.565
O/OREOS (USA 219) 25 Aug 23:13:44 23:17:28 24° 43° (NE) 23:21:12 437.305
ANTELSAT 25 Aug 23:16:14 23:19:55 26° 93° (E) 23:23:32 437.575/2403.000
VELOX 1 25 Aug 23:18:31 23:22:12 26° 61° (ENE) 23:25:55 145.980
PCSat 25 Aug 23:19:45 23:24:03 24° 250° (WSW) 23:28:18 145.827
CUBEBUG 1 25 Aug 23:26:43 23:30:41 34° 64° (ENE) 23:34:42 437.445
GONETS M04 25 Aug 23:35:42 23:44:29 59° 71° (ENE) 23:53:10
DX 1 25 Aug 23:43:56 23:47:47 31° 63° (ENE) 23:51:41 434.975-435.025
TIGRISAT 25 Aug 23:47:37 23:51:50 48° 99° (E) 23:55:58 435.000
ESTCUBE 1 25 Aug 23:47:52 23:52:20 73° 72° (ENE) 23:56:51 437.505/2401.250
HUMSAT D 25 Aug 23:47:59 23:51:28 25° 266° (W) 23:54:56 437.325/437.525
50 SAT 25 Aug 23:51:56 23:55:19 41° 69° (ENE) 23:58:45 437.505
POPSAT HIP 1 25 Aug 23:54:17 23:55:38 11° 85° (E) 23:56:59 437.405
SPROUT 25 Aug 23:56:00 23:59:44 29° 63° (ENE) 00:03:31 437.525
DELFI C3 25 Aug 23:58:22 23:59:29 11° 274° (W) 00:00:36 145.870
AISAT 26 Aug 00:06:17 00:10:42 67° 72° (ENE) 00:15:11 437.250
PRISM 26 Aug 00:11:33 00:14:16 17° 303° (WNW) 00:17:00 437.425
UNISAT 6 26 Aug 00:15:23 00:19:46 89° 296° (WNW) 00:24:03 437.425
AUBIESAT-1 26 Aug 00:17:51 00:21:52 28° 260° (W) 00:25:53 437.475
M-CUBED/EXP-1 PRIME 26 Aug 00:21:45 00:25:31 23° 263° (W) 00:29:17 437.505
QB50P2 26 Aug 00:22:30 00:25:52 22° 92° (E) 00:29:11 145.880/145.840
DUCHIFAT 1 26 Aug 00:23:34 00:26:39 19° 91° (E) 00:29:42 145.980
POLYITAN 1 26 Aug 00:25:02 00:28:24 22° 92° (E) 00:31:44 437.675
TISAT 1 26 Aug 00:25:04 00:27:50 17° 57° (ENE) 00:30:38 437.305
Cosmos 2499 26 Aug 00:25:17 00:32:28 80° 78° (ENE) 00:39:33 435.465 / 435.565
UKube-1 26 Aug 00:28:32 00:32:49 61° 70° (ENE) 00:37:07 .
CUSAT 1 26 Aug 00:30:58 00:33:45 36° 93° (E) 00:37:12 437.405
NANOSAT C BR1 26 Aug 00:35:49 00:39:25 26° 94° (E) 00:42:58 145.865
ANTELSAT 26 Aug 00:52:42 00:56:49 42° 293° (WNW) 01:00:50 437.575/2403.000
O/OREOS (USA 219) 26 Aug 00:52:46 00:57:21 70° 245° (WSW) 01:01:55 437.305
VELOX 1 26 Aug 00:54:09 00:58:28 48° 261° (W) 01:02:49 145.980
JAS-2 26 Aug 00:55:27 01:01:12 32° 93° (E) 01:07:30 435.910
SO-50 26 Aug 00:57:42 01:01:47 27° 118° (ESE) 01:05:49 436.795
CUBEBUG 1 26 Aug 01:02:55 01:06:58 35° 264° (W) 01:11:03 437.445
DANDE 26 Aug 01:06:01 01:08:07 21° 92° (E) 01:10:23 436.750
QB50P1 26 Aug 01:18:05 01:22:20 69° 102° (ESE) 01:26:32 145.935-145.965
DX 1 26 Aug 01:19:50 01:23:55 38° 263° (W) 01:28:03 434.975-435.025
TIGRISAT 26 Aug 01:24:46 01:28:18 25° 299° (WNW) 01:31:47 435.000
RS-15 26 Aug 01:25:22 01:34:17 27° 100° (E) 01:43:30 29.354- 29.394
50 SAT 26 Aug 01:26:28 01:29:07 19° 268° (W) 01:31:47 437.505
ESTCUBE 1 26 Aug 01:26:45 01:29:40 17° 271° (W) 01:32:37 437.505/2401.250
ITUPSAT 1 26 Aug 01:27:06 01:30:19 18° 54° (NE) 01:33:32 437.325
POPSAT HIP 1 26 Aug 01:27:52 01:32:08 83° 103° (ESE) 01:36:22 437.405
BUGSAT 1 26 Aug 01:28:13 01:32:08 36° 97° (E) 01:35:57 437.445
SPROUT 26 Aug 01:31:32 01:35:35 39° 262° (W) 01:39:41 437.525
GONETS M04 26 Aug 01:32:57 01:41:05 43° 275° (W) 01:49:12
AISAT 26 Aug 01:44:34 01:47:39 18° 270° (W) 01:50:45 437.250
UNISAT 6 26 Aug 01:53:25 01:55:52 15° 306° (NW) 01:58:17 437.425
QB50P2 26 Aug 01:57:49 02:01:56 49° 291° (WNW) 02:06:00 145.880/145.840
DUCHIFAT 1 26 Aug 01:58:32 02:02:42 56° 290° (WNW) 02:06:48 145.980
TISAT 1 26 Aug 01:58:45 02:03:00 77° 257° (WSW) 02:07:17 437.305
SWISSCUBE 26 Aug 02:00:07 02:04:23 34° 63° (ENE) 02:08:39 437.505
POLYITAN 1 26 Aug 02:00:22 02:04:28 48° 291° (WNW) 02:08:31 437.675
UKube-1 26 Aug 02:06:10 02:09:16 19° 269° (W) 02:12:23 .
NANOSAT C BR1 26 Aug 02:11:19 02:15:19 41° 293° (WNW) 02:19:15 145.865
CUSAT 1 26 Aug 02:13:52 02:16:08 18° 303° (WNW) 02:18:47 437.405
BEESAT 26 Aug 02:17:15 02:21:43 42° 65° (ENE) 02:26:13 436.000
Cosmos 2499 26 Aug 02:19:23 02:24:45 24° 281° (W) 02:30:05 435.465 / 435.565
Oscar 19 26 Aug 02:25:11 02:29:48 31° 94° (E) 02:34:23 437.125/150
O/OREOS (USA 219) 26 Aug 02:34:47 02:35:53 11° 264° (W) 02:36:59 437.305
SO-50 26 Aug 02:37:08 02:41:58 66° 318° (NW) 02:46:45 436.795
JAS-2 26 Aug 02:40:17 02:46:38 67° 291° (WNW) 02:53:47 435.910
DANDE 26 Aug 02:49:10 02:50:56 16° 298° (WNW) 02:52:52 436.750
MOZHAYETS 4 26 Aug 02:52:38 02:55:41 18° 56° (NE) 02:58:44
QB50P1 26 Aug 02:54:45 02:57:41 18° 302° (WNW) 03:00:36 145.935-145.965
ITUPSAT 1 26 Aug 03:02:48 03:07:35 85° 254° (WSW) 03:12:23 437.325
KKS-1 26 Aug 03:03:22 03:06:29 19° 56° (ENE) 03:09:36 437.445
BUGSAT 1 26 Aug 03:03:46 03:07:26 29° 296° (WNW) 03:11:02 437.445
POPSAT HIP 1 26 Aug 03:04:49 03:07:22 16° 304° (NW) 03:09:56 437.405
Cosmos 2491 26 Aug 03:15:03 03:18:57 13° 34° (NE) 03:22:51 435.465 / 435.565
Gurwin Techsat 1B 26 Aug 03:17:03 03:22:05 40° 97° (E) 03:27:04 435.225
RS-15 26 Aug 03:33:08 03:44:47 77° 126° (SE) 03:57:02 29.354- 29.394
ITAMSAT 1 26 Aug 03:34:47 03:38:37 20° 90° (E) 03:42:26 435.822/435.867
SWISSCUBE 26 Aug 03:37:39 03:42:07 40° 262° (W) 03:46:37 437.505
TISAT 1 26 Aug 03:38:34 03:39:25 10° 275° (W) 03:40:16 437.305
STARS 26 Aug 03:45:01 03:48:30 23° 59° (ENE) 03:51:59 437.465
BEESAT 26 Aug 03:55:23 03:59:38 31° 265° (W) 04:03:54 436.000
Oscar 19 26 Aug 04:04:19 04:09:21 49° 294° (WNW) 04:14:21 437.125/150
CUBESAT XI-V 26 Aug 04:07:03 04:09:41 15° 53° (NE) 04:12:19 437.345
AO-7 26 Aug 04:15:41 04:22:36 28° 91° (E) 04:29:25 29.400- 29.500
SO-50 26 Aug 04:19:16 04:23:16 25° 340° (NNW) 04:27:12 436.795
JAS-2 26 Aug 04:26:36 04:30:48 19° 311° (NW) 04:35:17 435.910
MOZHAYETS 4 26 Aug 04:27:45 04:32:19 81° 256° (WSW) 04:36:55
KKS-1 26 Aug 04:38:04 04:42:34 76° 257° (WSW) 04:47:06 437.445
ITUPSAT 1 26 Aug 04:43:45 04:46:10 14° 274° (W) 04:48:35 437.325
Gurwin Techsat 1B 26 Aug 04:57:07 05:02:03 39° 297° (WNW) 05:06:56 435.225
Cosmos 2491 26 Aug 05:10:50 05:19:03 40° 63° (ENE) 05:27:14 435.465 / 435.565
ITAMSAT 1 26 Aug 05:13:28 05:18:39 73° 289° (WNW) 05:23:49 435.822/435.867
STARS 26 Aug 05:20:09 05:24:32 57° 258° (WSW) 05:28:57 437.465
CUBESAT XI-V 26 Aug 05:41:45 05:46:21 81° 75° (ENE) 05:51:02 437.345
Oscar 19 26 Aug 05:45:48 05:47:33 12° 315° (NW) 05:49:19 437.125/150
HORYU 2 26 Aug 05:46:20 05:49:32 19° 91° (E) 05:52:43 437.375
RS-15 26 Aug 05:46:31 05:58:13 56° 336° (NNW) 06:10:24 29.354- 29.394
SO-50 26 Aug 06:01:43 06:05:13 20° 5° (N) 06:08:39 436.795
AO-7 26 Aug 06:07:59 06:16:22 85° 293° (WNW) 06:24:40 29.400- 29.500
MOZHAYETS 4 26 Aug 06:08:27 06:10:16 12° 275° (W) 06:12:05
NOAA 15 26 Aug 06:09:25 06:10:34 11° 82° (E) 06:11:42 137.62
STRAND 1 26 Aug 06:11:28 06:14:59 19° 53° (NE) 06:18:29 437.568
KKS-1 26 Aug 06:18:34 06:19:56 11° 275° (W) 06:21:18 437.445
Cosmos 2504 26 Aug 06:21:07 06:21:40 10° 66° (ENE) 06:22:13 435.465 / 435.565
YUBILEINY 26 Aug 06:33:55 06:41:42 37° 83° (E) 06:49:30 435.215
AO-85 26 Aug 06:35:47 06:40:11 28° 118° (ESE) 06:44:23 145.980
GOMX 1 26 Aug 06:39:33 06:43:15 18° 85° (E) 06:46:50 467.674
BRITE-PL 26 Aug 06:51:36 06:56:58 41° 95° (E) 07:02:19 437.365/2234.400
ITAMSAT 1 26 Aug 06:54:13 06:57:19 16° 310° (NW) 07:00:24 435.822/435.867
DOVE 4 26 Aug 06:58:13 07:00:07 12° 81° (E) 07:01:59 437.250
Cosmos 2491 26 Aug 07:07:46 07:16:25 63° 268° (W) 07:25:05 435.465 / 435.565
LilacSat-2 26 Aug 07:13:46 07:16:54 24° 93° (E) 07:20:01 437.200
CUBESAT XI-V 26 Aug 07:21:35 07:24:22 16° 273° (W) 07:27:10 437.345
HORYU 2 26 Aug 07:22:07 07:26:31 62° 290° (WNW) 07:30:51 437.375
Cubesat XI-IV 26 Aug 07:25:41 07:30:33 35° 96° (E) 07:35:23 437.490
CUTE-I 26 Aug 07:38:08 07:43:13 43° 98° (E) 07:48:16 437.470
SO-50 26 Aug 07:42:40 07:46:59 34° 29° (NNE) 07:51:11 436.795
NOAA 15 26 Aug 07:46:11 07:51:28 61° 102° (ESE) 07:56:43 137.62
STRAND 1 26 Aug 07:48:25 07:53:31 90° 141° (SE) 07:58:41 437.568
CINEMA 3 26 Aug 07:55:13 07:55:48 10° 81° (E) 07:56:23 145.822/145.860
PRISM 26 Aug 07:56:35 07:59:20 18° 57° (ENE) 08:02:07 437.425
NOAA 18 26 Aug 08:00:39 08:06:04 56° 102° (ESE) 08:11:26 137.9125
AO-7 26 Aug 08:01:21 08:08:13 30° 316° (NW) 08:15:03 29.400- 29.500
RS-15 26 Aug 08:01:53 08:13:36 48° 9° (N) 08:25:30 29.354- 29.394
Cosmos 2504 26 Aug 08:05:14 08:13:05 46° 89° (E) 08:20:25 435.465 / 435.565
AO-85 26 Aug 08:15:13 08:20:24 69° 317° (NW) 08:25:14 145.980
GOMX 1 26 Aug 08:16:31 08:22:04 88° 284° (WNW) 08:27:25 467.674
